WetterOnline ( https://www.wetteronline.ch )

Wetter aktuell Sonthofen/Oberallgäu

Aktuelles Wetter: Oberstdorf (812m)

6-stündlich | Neueste Meldungen
Ortszeit Temperatur Wetter
Mi, 21.08. 20:00 14.6° C bedeckt
Mi, 21.08. 14:00 16.6° C bedeckt
Mi, 21.08. 8:00 11.4° C bedeckt
Mi, 21.08. 2:00 10.8° C Regen
Di, 20.08. 20:00 12.8° C Sprühregen
Di, 20.08. 14:00 16.9° C leichter Regen
Di, 20.08. 8:00 15.5° C Sprühregen
Di, 20.08. 2:00 14.9° C leichter Regen
Ortszeit Temperatur Wetter
Do, 22.08. 1:00 12.7° C bedeckt
Do, 22.08. 0:50 12.7° C bedeckt
Do, 22.08. 0:40 12.5° C bedeckt
Do, 22.08. 0:30 12.6° C bedeckt
Do, 22.08. 0:20 12.6° C bedeckt
Do, 22.08. 0:10 12.7° C bewölkt
Do, 22.08. 0:00 12.9° C bewölkt
Mi, 21.08. 23:30 13.3° C bedeckt
Mi, 21.08. 23:00 13.6° C bedeckt
Mi, 21.08. 22:30 13.5° C bedeckt
Mi, 21.08. 22:00 13.7° C bedeckt
Ortszeit Relative Feuchte Sichtweite
Mi, 21.08. 20:00 91% 40 km
Mi, 21.08. 14:00 69% 35 km
Mi, 21.08. 8:00 93% 30 km
Mi, 21.08. 2:00 96% 5.0 km
Di, 20.08. 20:00 97% 28 km
Di, 20.08. 14:00 90% 18 km
Di, 20.08. 8:00 96% 25 km
Di, 20.08. 2:00 96% 10 km
Ortszeit Relative Feuchte Sichtweite
Do, 22.08. 1:00 97% 30 km
Do, 22.08. 0:50 97% -
Do, 22.08. 0:40 97% -
Do, 22.08. 0:30 96% 30 km
Do, 22.08. 0:20 96% -
Do, 22.08. 0:10 96% -
Do, 22.08. 0:00 96% 25 km
Mi, 21.08. 23:30 95% 35 km
Mi, 21.08. 23:00 94% 40 km
Mi, 21.08. 22:30 93% 40 km
Mi, 21.08. 22:00 94% 35 km
Ortszeit Niederschlagsmenge Niederschlagsart
Mi, 21.08. 20:00 0.0 l/m2 in 12 Std. -
Mi, 21.08. 14:00 0.0 l/m2 in 6 Std. -
Mi, 21.08. 8:00 20 l/m2 in 12 Std. Regen
Mi, 21.08. 2:00 18 l/m2 in 6 Std. Regen
Di, 20.08. 20:00 14 l/m2 in 12 Std. Regen
Di, 20.08. 14:00 4 l/m2 in 6 Std. Regen
Di, 20.08. 8:00 6 l/m2 in 12 Std. Regen
Di, 20.08. 2:00 5 l/m2 in 6 Std. Regen
Ortszeit Niederschlagsmenge Niederschlagsart
Do, 22.08. 1:00 0.0 l/m2 in 1 Std. -
Do, 22.08. 0:50 keine Meldung -
Do, 22.08. 0:40 keine Meldung -
Do, 22.08. 0:30 0.0 l/m2 in 1 Std. -
Do, 22.08. 0:20 keine Meldung -
Do, 22.08. 0:10 keine Meldung -
Do, 22.08. 0:00 0.0 l/m2 in 1 Std. -
Mi, 21.08. 23:30 0.0 l/m2 in 1 Std. -
Mi, 21.08. 23:00 0.0 l/m2 in 1 Std. -
Mi, 21.08. 22:30 0.0 l/m2 in 1 Std. -
Mi, 21.08. 22:00 0.0 l/m2 in 1 Std. -
Ortszeit Stärke Spitze Richtung
km/h Bft. km/h Grad Sektor
Mi, 21.08. 20:00 4 1 25 190° S
Mi, 21.08. 14:00 13 3 22 10° N
Mi, 21.08. 8:00 0 0 11 - -
Mi, 21.08. 2:00 4 1 25 90° O
Di, 20.08. 20:00 7 2 32 350° N
Di, 20.08. 14:00 4 1 11 130° SO
Di, 20.08. 8:00 4 1 14 180° S
Di, 20.08. 2:00 2 1 24 180° S
Ortszeit Stärke Spitze Richtung
km/h Bft. km/h Grad Sektor
Do, 22.08. 1:00 0 0 4 - -
Do, 22.08. 0:50 0 0 - 40° NO
Do, 22.08. 0:40 2 1 - 300° NW
Do, 22.08. 0:30 4 1 4 150° SO
Do, 22.08. 0:20 4 1 - 150° SO
Do, 22.08. 0:10 2 1 - 160° S
Do, 22.08. 0:00 4 1 7 180° S
Mi, 21.08. 23:30 4 1 7 180° S
Mi, 21.08. 23:00 4 1 7 190° S
Mi, 21.08. 22:30 4 1 7 210° SW
Mi, 21.08. 22:00 4 1 7 180° S
Ortszeit Untergrenze Bedeckung Gattung
total tief tief mittel hoch
Mi, 21.08. 20:00 570 m 8/8 8/8 - - -
Mi, 21.08. 14:00 660 m 8/8 8/8 - - -
Mi, 21.08. 8:00 270 m 8/8 8/8 - - -
Mi, 21.08. 2:00 360 m 7/8 8/8 - - -
Di, 20.08. 20:00 240 m 8/8 8/8 - - -
Di, 20.08. 14:00 210 m 8/8 8/8 - - -
Di, 20.08. 8:00 510 m 8/8 8/8 - - -
Di, 20.08. 2:00 120 m 7/8 7/8 - - -
Ortszeit Bedeckungsgrad in Achtel und Wolkenuntergrenze
Do, 22.08. 1:00 7(570m) 8(750m)
Do, 22.08. 0:50 7(570m) 8(750m)
Do, 22.08. 0:40 8(570m) 8(3300m) 8(9000m)
Do, 22.08. 0:30 8(570m) 8(3300m) 8(6600m)
Do, 22.08. 0:20 8(570m) 8(3300m) 8(6600m)
Do, 22.08. 0:10 6(570m) 8(6600m) 8(9000m)
Do, 22.08. 0:00 7(690m) 8(6600m) 8(7200m)
Mi, 21.08. 23:30 7(540m) 8(690m) 8(1050m)
Mi, 21.08. 23:00 8(540m) 8(690m)
Mi, 21.08. 22:30 8(540m)
Mi, 21.08. 22:00 8(540m)
Ortszeit Stationsdruck (hPa) Tendenz (hPa in 3 Std.)
Mi, 21.08. 20:00 933 - 0,4
Mi, 21.08. 14:00 933 - 1,3
Mi, 21.08. 8:00 935 0,0
Mi, 21.08. 2:00 935 + 0,1
Di, 20.08. 20:00 932 + 1,4
Di, 20.08. 14:00 928 - 0,5
Di, 20.08. 8:00 929 + 0,7
Di, 20.08. 2:00 929 + 0,5
Ortszeit Stationsdruck (hPa) Tendenz (hPa in 3 Std.)
Do, 22.08. 1:00 932 - 0,8
Do, 22.08. 0:50 932 keine Meldung
Do, 22.08. 0:40 932 keine Meldung
Do, 22.08. 0:30 932 - 1,1
Do, 22.08. 0:20 932 keine Meldung
Do, 22.08. 0:10 932 keine Meldung
Do, 22.08. 0:00 932 - 0,6
Mi, 21.08. 23:30 932 - 0,4
Mi, 21.08. 23:00 933 - 0,1
Mi, 21.08. 22:30 933 - 0,1
Mi, 21.08. 22:00 933 + 0,3
Ortszeit Schneehöhe (cm)
Mi, 21.08. 20:00 -
Mi, 21.08. 14:00 -
Mi, 21.08. 8:00 -
Mi, 21.08. 2:00 -
Di, 20.08. 20:00 -
Di, 20.08. 14:00 -
Di, 20.08. 8:00 -
Di, 20.08. 2:00 -
Ortszeit Schneehöhe (cm)
Do, 22.08. 1:00 -
Do, 22.08. 0:50 -
Do, 22.08. 0:40 -
Do, 22.08. 0:30 -
Do, 22.08. 0:20 -
Do, 22.08. 0:10 -
Do, 22.08. 0:00 -
Mi, 21.08. 23:30 -
Mi, 21.08. 23:00 -
Mi, 21.08. 22:30 -
Mi, 21.08. 22:00 -
Link zu dieser Seite / Seite empfehlen

Das Wetter in ...